Regional Weather Roundup
Issued by NWS Jackson, KY

Home | Current Version | Previous Version | Text Only | Print | Product List | Glossary On
Versions: 1 2 3 4 5 6 7 8 9 10 11 12 13 14 15 16 17 18 19 20 21 22 23 24 25 26 27 28
000
ASUS43 KJKL 171010
RWRJKL

EAST KENTUCKY HOURLY WEATHER ROUNDUP
NATIONAL WEATHER SERVICE JACKSON KY
500 AM EST TUE JAN 17 2017

NOTE: "FAIR" INDICATES FEW OR NO CLOUDS BELOW 12,000 FEET WITH
NO SIGNIFICANT WEATHER AND/OR OBSTRUCTIONS TO VISIBILITY.

* THESE REPORTS ARE NOT UNDER NWS QUALITY CONTROL AND MAY NOT
  REPORT WEATHER SUCH AS PRECIPITATION AND FOG.

KYZ079-080-083-085-087-088-110-112-115-119-120-171100
...EASTERN KENTUCKY...

CITY           SKY/WX    TMP DP  RH WIND       PRES   REMARKS
JACKSON        LGT RAIN  55  54  96 SW3       30.06F FOG
LONDON         LGT RAIN  57  54  89 S7        30.06F
SOMERSET*      HVY RAIN  55  55 100 S8        30.04F
MONTICELLO*    LGT RAIN  60  56  86 SE7G17    30.04F
WILLIAMSBURG*  CLOUDY    59  59 100 S8        30.07F
MIDDLESBORO*   RAIN      59  54  83 S8G17     30.11R
HARLAN APT*    CLOUDY    55  52  88 CALM      30.11S
PIKE CO APT*   RAIN      56  53  92 S6        30.09S
BIG SANDY APT* RAIN      56  54  94 S6        30.08
MOREHEAD APT*  RAIN      57  55  94 S12G20    30.04S
ASHLAND*       CLOUDY    50  50 100 E5        30.02F
$$

KYZ035-036-041-042-044-050-067-078-099-171100
...CENTRAL KENTUCKY...

CITY           SKY/WX    TMP DP  RH WIND       PRES   REMARKS
MT STERLING*   RAIN      55  55 100 SW12G18   30.01F
FLEMING/MASON* CLOUDY    56  56  99 S8        30.00F
DANVILLE*      RAIN      55  55 100 SW14G28   29.99F
LEXINGTON      CLOUDY    58  55  90 S13       29.98S
FRANKFORT      CLOUDY    59  55  87 S13G22    29.94F
LOUISVILLE     CLOUDY    61  56  83 S18G24    29.91F
LEBANON*       LGT RAIN  57  57 100 S14G21    29.98F
GLASGOW*       RAIN      59  59 100 S7G17     29.98F
BOWLING GREEN  LGT RAIN  61  58  90 S12       29.97F
$$

KYZ091>093-OHZ055-061-077-WVZ005-015-034-035-042-171100
...SOUTHERN OHIO/WEST VIRGINIA...

CITY           SKY/WX    TMP DP  RH WIND       PRES   REMARKS
COVINGTON      LGT RAIN  57  56  96 S15       29.91S
COLUMBUS       CLOUDY    54  53  97 S10       29.95F
DAYTON         LGT RAIN  55  54  96 S13       29.89F
WILMINGTON     RAIN      55  54  96 S21       29.91F FOG
HUNTINGTON     RAIN      54  51  90 S8        30.04F
CHARLESTON     LGT RAIN  50  48  93 CALM      30.06F FOG
PINEVILLE*     CLOUDY    50  46  87 MISG      30.16S FOG
BECKLEY        CLOUDY    51  45  79 SE8       30.12F
BLUEFIELD      CLOUDY    52  44  74 VRB5      30.15S
LOGAN CO APT*  LGT RAIN  55  50  82 S5        30.10R
$$

VAZ002-007-008-TNZ017-027-036-066-071-171100
...SOUTHWEST VIRGINIA/EAST TENNESSEE...

CITY           SKY/WX    TMP DP  RH WIND       PRES   REMARKS
WISE*          RAIN      54  46  76 S7        30.15S
JONESVILLE*      N/A     50  50 100 CALM      30.14F
ABINGDON*      CLOUDY    51  49  93 CALM      30.15F
BRISTOL        CLOUDY    53  49  86 N3        30.13F
MORRISTOWN*    CLOUDY    52  52 100 CALM      30.11F
SEVIERVILLE*   PTSUNNY   50  50 100 CALM      30.11F
KNOXVILLE      CLOUDY    62  52  69 SW13      30.11F
LAFOLLETTE*    CLOUDY    61  54  77 VRB7G22   30.12S
OAK RIDGE      CLOUDY    57  53  86 CALM      30.11F
CROSSVILLE     CLOUDY    58  52  80 S13G26    30.10S
NASHVILLE      LGT RAIN  64  58  80 SW12G23   30.02S
$$

...KEY TO REMARKS...
VSB - VISIBILITY IN MILES
WCI - WIND CHILL INDEX
HX  - HEAT INDEX

$$




USA.gov is the U.S. government's official web portal to all federal, state and local government web resources and services.